contact:dominique.lefevre@mio.osupytheas.fr, maurice.libes@osupytheas.fr, didier.mallarino@osupytheas.fr
Project:EMSO http://www.emso-fr.org/EMSO-France
Depth: 2436.0 m
Title:EMSO Ligure Ouest : Data MII capteur MICROCAT
DateTime_Computer,Latitude,Longitude,Temperature,Conductivity,Pressure,DateTime_Instrument
DateTime_Computer,Latitude,Longitude,degC,S m-1,dbar,DateTime_Instrument
2023-10-19T00:00:13Z,42.805,6.029,13.3034,4.60105,2470.8,2023-10-19T02:02:37Z
2023-10-19T00:03:16Z,42.805,6.029,13.3031,4.60102,2470.763,2023-10-19T02:05:41Z
2023-10-19T00:06:19Z,42.805,6.029,13.3033,4.60103,2470.763,2023-10-19T02:08:44Z
2023-10-19T00:09:22Z,42.805,6.029,13.3030,4.60101,2470.777,2023-10-19T02:11:47Z
2023-10-19T00:12:25Z,42.805,6.029,13.3034,4.60102,2470.763,2023-10-19T02:14:50Z
2023-10-19T00:15:28Z,42.805,6.029,13.3036,4.60102,2470.74,2023-10-19T02:17:53Z
2023-10-19T00:18:31Z,42.805,6.029,13.3033,4.60101,2470.74,2023-10-19T02:20:56Z
2023-10-19T00:21:34Z,42.805,6.029,13.3031,4.60102,2470.763,2023-10-19T02:23:59Z
2023-10-19T00:24:37Z,42.805,6.029,13.3035,4.60102,2470.763,2023-10-19T02:27:02Z
2023-10-19T00:27:40Z,42.805,6.029,13.3035,4.60102,2470.74,2023-10-19T02:30:05Z
2023-10-19T00:30:43Z,42.805,6.029,13.3034,4.60102,2470.74,2023-10-19T02:33:08Z
2023-10-19T00:33:46Z,42.805,6.029,13.3033,4.60102,2470.74,2023-10-19T02:36:11Z
2023-10-19T00:36:50Z,42.805,6.029,13.3035,4.60102,2470.824,2023-10-19T02:39:14Z
2023-10-19T00:39:53Z,42.805,6.029,13.3033,4.60102,2470.717,2023-10-19T02:42:17Z
2023-10-19T00:42:56Z,42.805,6.029,13.3033,4.60102,2470.74,2023-10-19T02:45:21Z
2023-10-19T00:45:59Z,42.805,6.029,13.3031,4.60102,2470.74,2023-10-19T02:48:24Z
2023-10-19T00:49:02Z,42.805,6.029,13.3034,4.60102,2470.74,2023-10-19T02:51:27Z
2023-10-19T00:52:05Z,42.805,6.029,13.3030,4.60102,2470.717,2023-10-19T02:54:30Z
2023-10-19T00:55:08Z,42.805,6.029,13.3034,4.60101,2470.754,2023-10-19T02:57:33Z
2023-10-19T00:58:11Z,42.805,6.029,13.3032,4.60102,2470.717,2023-10-19T03:00:36Z
2023-10-19T01:01:14Z,42.805,6.029,13.3035,4.60102,2470.717,2023-10-19T03:03:39Z
2023-10-19T01:04:17Z,42.805,6.029,13.3034,4.60102,2470.73,2023-10-19T03:06:42Z
2023-10-19T01:07:20Z,42.805,6.029,13.3036,4.60104,2470.73,2023-10-19T03:09:45Z
2023-10-19T01:10:23Z,42.805,6.029,13.3033,4.60105,2470.73,2023-10-19T03:12:48Z
2023-10-19T01:13:27Z,42.805,6.029,13.3036,4.60102,2470.717,2023-10-19T03:15:51Z
2023-10-19T01:16:30Z,42.805,6.029,13.3036,4.60104,2470.777,2023-10-19T03:18:54Z
2023-10-19T01:19:33Z,42.805,6.029,13.3036,4.60104,2470.717,2023-10-19T03:21:58Z
2023-10-19T01:22:36Z,42.805,6.029,13.3034,4.60110,2470.693,2023-10-19T03:25:01Z
2023-10-19T01:25:39Z,42.805,6.029,13.3032,4.60102,2470.74,2023-10-19T03:28:04Z
2023-10-19T01:28:42Z,42.805,6.029,13.3036,4.60102,2470.693,2023-10-19T03:31:07Z
2023-10-19T01:31:45Z,42.805,6.029,13.3032,4.60102,2470.73,2023-10-19T03:34:10Z
2023-10-19T01:34:48Z,42.805,6.029,13.3035,4.60102,2470.693,2023-10-19T03:37:13Z
2023-10-19T01:37:51Z,42.805,6.029,13.3035,4.60103,2470.717,2023-10-19T03:40:16Z
2023-10-19T01:40:54Z,42.805,6.029,13.3034,4.60104,2470.74,2023-10-19T03:43:19Z
2023-10-19T01:43:57Z,42.805,6.029,13.3032,4.60104,2470.74,2023-10-19T03:46:22Z
2023-10-19T01:47:00Z,42.805,6.029,13.3032,4.60102,2470.693,2023-10-19T03:49:25Z
2023-10-19T01:50:04Z,42.805,6.029,13.3036,4.60102,2470.693,2023-10-19T03:52:28Z
2023-10-19T01:53:07Z,42.805,6.029,13.3035,4.60102,2470.67,2023-10-19T03:55:31Z
2023-10-19T01:56:10Z,42.805,6.029,13.3033,4.60104,2470.707,2023-10-19T03:58:35Z
2023-10-19T01:59:13Z,42.805,6.029,13.3035,4.60102,2470.73,2023-10-19T04:01:38Z
2023-10-19T02:02:16Z,42.805,6.029,13.3030,4.60102,2470.73,2023-10-19T04:04:41Z
2023-10-19T02:05:19Z,42.805,6.029,13.3034,4.60104,2470.693,2023-10-19T04:07:44Z
2023-10-19T02:08:22Z,42.805,6.029,13.3034,4.60102,2470.693,2023-10-19T04:10:47Z
2023-10-19T02:11:25Z,42.805,6.029,13.3036,4.60107,2470.717,2023-10-19T04:13:50Z
2023-10-19T02:14:28Z,42.805,6.029,13.3034,4.60102,2470.73,2023-10-19T04:16:53Z
2023-10-19T02:17:31Z,42.805,6.029,13.3038,4.60108,2470.717,2023-10-19T04:19:56Z
2023-10-19T02:20:34Z,42.805,6.029,13.3035,4.60102,2470.693,2023-10-19T04:22:59Z
2023-10-19T02:23:37Z,42.805,6.029,13.3036,4.60102,2470.717,2023-10-19T04:26:02Z
2023-10-19T02:26:41Z,42.805,6.029,13.3037,4.60102,2470.684,2023-10-19T04:29:05Z
2023-10-19T02:29:44Z,42.805,6.029,13.3034,4.60102,2470.67,2023-10-19T04:32:08Z
2023-10-19T02:32:47Z,42.805,6.029,13.3035,4.60102,2470.693,2023-10-19T04:35:12Z
2023-10-19T02:35:50Z,42.805,6.029,13.3036,4.60108,2470.693,2023-10-19T04:38:15Z
2023-10-19T02:38:53Z,42.805,6.029,13.3033,4.60102,2470.707,2023-10-19T04:41:18Z
2023-10-19T02:41:56Z,42.805,6.029,13.3032,4.60106,2470.646,2023-10-19T04:44:21Z
2023-10-19T02:44:59Z,42.805,6.029,13.3032,4.60104,2470.67,2023-10-19T04:47:24Z
2023-10-19T02:48:02Z,42.805,6.029,13.3034,4.60103,2470.693,2023-10-19T04:50:27Z
2023-10-19T02:51:05Z,42.805,6.029,13.3031,4.60102,2470.67,2023-10-19T04:53:30Z
2023-10-19T02:54:08Z,42.805,6.029,13.3036,4.60103,2470.67,2023-10-19T04:56:33Z
2023-10-19T02:57:11Z,42.805,6.029,13.3034,4.60101,2470.703,2023-10-19T04:59:36Z
2023-10-19T03:00:14Z,42.805,6.029,13.3034,4.60102,2470.707,2023-10-19T05:02:39Z
2023-10-19T03:03:18Z,42.805,6.029,13.3033,4.60102,2470.707,2023-10-19T05:05:42Z
2023-10-19T03:06:21Z,42.805,6.029,13.3038,4.60104,2470.684,2023-10-19T05:08:45Z
2023-10-19T03:09:24Z,42.805,6.029,13.3032,4.60106,2470.693,2023-10-19T05:11:49Z
2023-10-19T03:12:27Z,42.805,6.029,13.3033,4.60104,2470.67,2023-10-19T05:14:52Z
2023-10-19T03:15:30Z,42.805,6.029,13.3036,4.60103,2470.693,2023-10-19T05:17:55Z
2023-10-19T03:18:33Z,42.805,6.029,13.3031,4.60106,2470.693,2023-10-19T05:20:58Z
2023-10-19T03:21:36Z,42.805,6.029,13.3029,4.60106,2470.684,2023-10-19T05:24:01Z
2023-10-19T03:24:39Z,42.805,6.029,13.3032,4.60106,2470.67,2023-10-19T05:27:04Z
2023-10-19T03:27:42Z,42.805,6.029,13.3034,4.60106,2470.684,2023-10-19T05:30:07Z
2023-10-19T03:30:45Z,42.805,6.029,13.3033,4.60105,2470.67,2023-10-19T05:33:10Z
2023-10-19T03:33:48Z,42.805,6.029,13.3033,4.60107,2470.67,2023-10-19T05:36:13Z
2023-10-19T03:36:51Z,42.805,6.029,13.3032,4.60104,2470.656,2023-10-19T05:39:16Z
2023-10-19T03:39:55Z,42.805,6.029,13.3033,4.60104,2470.67,2023-10-19T05:42:19Z
2023-10-19T03:42:58Z,42.805,6.029,13.3034,4.60104,2470.67,2023-10-19T05:45:22Z
2023-10-19T03:46:01Z,42.805,6.029,13.3034,4.60104,2470.707,2023-10-19T05:48:26Z
2023-10-19T03:49:04Z,42.805,6.029,13.3036,4.60105,2470.67,2023-10-19T05:51:29Z
2023-10-19T03:52:07Z,42.805,6.029,13.3035,4.60108,2470.67,2023-10-19T05:54:32Z
2023-10-19T03:55:10Z,42.805,6.029,13.3033,4.60103,2470.684,2023-10-19T05:57:35Z
2023-10-19T03:58:13Z,42.805,6.029,13.3034,4.60103,2470.693,2023-10-19T06:00:38Z
2023-10-19T04:01:16Z,42.805,6.029,13.3036,4.60104,2470.67,2023-10-19T06:03:41Z
2023-10-19T04:04:19Z,42.805,6.029,13.3034,4.60103,2470.67,2023-10-19T06:06:44Z
2023-10-19T04:07:22Z,42.805,6.029,13.3031,4.60104,2470.679,2023-10-19T06:09:47Z
2023-10-19T04:10:25Z,42.805,6.029,13.3034,4.60103,2470.693,2023-10-19T06:12:50Z
2023-10-19T04:13:28Z,42.805,6.029,13.3033,4.60104,2470.67,2023-10-19T06:15:53Z
2023-10-19T04:16:32Z,42.805,6.029,13.3034,4.60104,2470.67,2023-10-19T06:18:56Z
2023-10-19T04:19:35Z,42.805,6.029,13.3033,4.60103,2470.693,2023-10-19T06:21:59Z
2023-10-19T04:22:38Z,42.805,6.029,13.3033,4.60104,2470.684,2023-10-19T06:25:03Z
2023-10-19T04:25:41Z,42.805,6.029,13.3031,4.60103,2470.67,2023-10-19T06:28:06Z
2023-10-19T04:28:44Z,42.805,6.029,13.3037,4.60103,2470.656,2023-10-19T06:31:09Z
2023-10-19T04:31:46Z,42.805,6.029,13.3033,4.60103,2470.646,2023-10-19T06:34:11Z
2023-10-19T04:34:49Z,42.805,6.029,13.3035,4.60104,2470.646,2023-10-19T06:37:14Z
2023-10-19T04:37:52Z,42.805,6.029,13.3034,4.60104,2470.67,2023-10-19T06:40:17Z
2023-10-19T04:40:55Z,42.805,6.029,13.3034,4.60104,2470.624,2023-10-19T06:43:20Z
2023-10-19T04:43:58Z,42.805,6.029,13.3033,4.60105,2470.67,2023-10-19T06:46:23Z
2023-10-19T04:47:01Z,42.805,6.029,13.3034,4.60104,2470.646,2023-10-19T06:49:26Z
2023-10-19T04:50:05Z,42.805,6.029,13.3037,4.60102,2470.684,2023-10-19T06:52:29Z
2023-10-19T04:53:08Z,42.805,6.029,13.3031,4.60104,2470.693,2023-10-19T06:55:33Z
2023-10-19T04:56:11Z,42.805,6.029,13.3035,4.60103,2470.707,2023-10-19T06:58:36Z
2023-10-19T04:59:14Z,42.805,6.029,13.3038,4.60103,2470.684,2023-10-19T07:01:39Z
2023-10-19T05:02:17Z,42.805,6.029,13.3036,4.60108,2470.693,2023-10-19T07:04:42Z
2023-10-19T05:05:20Z,42.805,6.029,13.3031,4.60104,2470.707,2023-10-19T07:07:45Z
2023-10-19T05:08:23Z,42.805,6.029,13.3034,4.60102,2470.717,2023-10-19T07:10:48Z
2023-10-19T05:11:26Z,42.805,6.029,13.3037,4.60104,2470.717,2023-10-19T07:13:51Z
2023-10-19T05:14:29Z,42.805,6.029,13.3034,4.60103,2470.67,2023-10-19T07:16:54Z
2023-10-19T05:17:32Z,42.805,6.029,13.3032,4.60103,2470.67,2023-10-19T07:19:57Z
2023-10-19T05:20:35Z,42.805,6.029,13.3034,4.60104,2470.73,2023-10-19T07:23:00Z
2023-10-19T05:23:38Z,42.805,6.029,13.3036,4.60103,2470.693,2023-10-19T07:26:03Z
2023-10-19T05:26:42Z,42.805,6.029,13.3033,4.60104,2470.707,2023-10-19T07:29:06Z
2023-10-19T05:29:45Z,42.805,6.029,13.3033,4.60104,2470.74,2023-10-19T07:32:09Z
2023-10-19T05:32:48Z,42.805,6.029,13.3036,4.60104,2470.74,2023-10-19T07:35:13Z
2023-10-19T05:35:51Z,42.805,6.029,13.3034,4.60104,2470.717,2023-10-19T07:38:16Z
2023-10-19T05:38:54Z,42.805,6.029,13.3036,4.60104,2470.74,2023-10-19T07:41:19Z
2023-10-19T05:41:57Z,42.805,6.029,13.3033,4.60106,2470.684,2023-10-19T07:44:22Z
2023-10-19T05:45:00Z,42.805,6.029,13.3038,4.60104,2470.707,2023-10-19T07:47:25Z
2023-10-19T05:48:03Z,42.805,6.029,13.3034,4.60104,2470.73,2023-10-19T07:50:28Z
2023-10-19T05:51:06Z,42.805,6.029,13.3036,4.60104,2470.717,2023-10-19T07:53:31Z
2023-10-19T05:54:09Z,42.805,6.029,13.3032,4.60102,2470.717,2023-10-19T07:56:34Z
2023-10-19T05:57:12Z,42.805,6.029,13.3035,4.60104,2470.74,2023-10-19T07:59:37Z
2023-10-19T06:00:15Z,42.805,6.029,13.3038,4.60105,2470.717,2023-10-19T08:02:40Z
2023-10-19T06:03:19Z,42.805,6.029,13.3034,4.60104,2470.717,2023-10-19T08:05:43Z
2023-10-19T06:06:22Z,42.805,6.029,13.3030,4.60104,2470.74,2023-10-19T08:08:47Z
2023-10-19T06:09:25Z,42.805,6.029,13.3037,4.60102,2470.74,2023-10-19T08:11:50Z
2023-10-19T06:12:28Z,42.805,6.029,13.3034,4.60103,2470.717,2023-10-19T08:14:53Z
2023-10-19T06:15:31Z,42.805,6.029,13.3036,4.60103,2470.74,2023-10-19T08:17:56Z
2023-10-19T06:18:34Z,42.805,6.029,13.3036,4.60102,2470.717,2023-10-19T08:20:59Z
2023-10-19T06:21:37Z,42.805,6.029,13.3034,4.60104,2470.763,2023-10-19T08:24:02Z
2023-10-19T06:24:40Z,42.805,6.029,13.3034,4.60103,2470.763,2023-10-19T08:27:05Z
2023-10-19T06:27:43Z,42.805,6.029,13.3034,4.60103,2470.74,2023-10-19T08:30:08Z
2023-10-19T06:30:46Z,42.805,6.029,13.3032,4.60103,2470.74,2023-10-19T08:33:11Z
2023-10-19T06:33:49Z,42.805,6.029,13.3034,4.60104,2470.787,2023-10-19T08:36:14Z
2023-10-19T06:36:52Z,42.805,6.029,13.3033,4.60102,2470.777,2023-10-19T08:39:17Z
2023-10-19T06:39:56Z,42.805,6.029,13.3034,4.60104,2470.777,2023-10-19T08:42:20Z
2023-10-19T06:42:59Z,42.805,6.029,13.3035,4.60104,2470.74,2023-10-19T08:45:24Z
2023-10-19T06:46:02Z,42.805,6.029,13.3032,4.60103,2470.74,2023-10-19T08:48:27Z
2023-10-19T06:49:05Z,42.805,6.029,13.3034,4.60103,2470.8,2023-10-19T08:51:30Z
2023-10-19T06:52:08Z,42.805,6.029,13.3034,4.60104,2470.81,2023-10-19T08:54:33Z
2023-10-19T06:55:11Z,42.805,6.029,13.3032,4.60104,2470.74,2023-10-19T08:57:36Z
2023-10-19T06:58:14Z,42.805,6.029,13.3036,4.60103,2470.777,2023-10-19T09:00:39Z
2023-10-19T07:01:17Z,42.805,6.029,13.3035,4.60102,2470.787,2023-10-19T09:03:42Z
2023-10-19T07:04:20Z,42.805,6.029,13.3036,4.60104,2470.787,2023-10-19T09:06:45Z
2023-10-19T07:07:23Z,42.805,6.029,13.3036,4.60104,2470.824,2023-10-19T09:09:48Z
2023-10-19T07:10:26Z,42.805,6.029,13.3034,4.60106,2470.8,2023-10-19T09:12:51Z
2023-10-19T07:13:29Z,42.805,6.029,13.3036,4.60103,2470.787,2023-10-19T09:15:54Z
2023-10-19T07:16:33Z,42.805,6.029,13.3034,4.60105,2470.8,2023-10-19T09:18:57Z
2023-10-19T07:19:36Z,42.805,6.029,13.3037,4.60102,2470.824,2023-10-19T09:22:01Z
2023-10-19T07:22:39Z,42.805,6.029,13.3034,4.60105,2470.81,2023-10-19T09:25:04Z
2023-10-19T07:25:42Z,42.805,6.029,13.3034,4.60104,2470.824,2023-10-19T09:28:07Z
2023-10-19T07:28:45Z,42.805,6.029,13.3035,4.60104,2470.787,2023-10-19T09:31:10Z
2023-10-19T07:31:48Z,42.805,6.029,13.3037,4.60104,2470.833,2023-10-19T09:34:13Z
2023-10-19T07:34:51Z,42.805,6.029,13.3035,4.60104,2470.81,2023-10-19T09:37:16Z
2023-10-19T07:37:54Z,42.805,6.029,13.3034,4.60104,2470.81,2023-10-19T09:40:19Z
2023-10-19T07:40:57Z,42.805,6.029,13.3031,4.60103,2470.81,2023-10-19T09:43:22Z
2023-10-19T07:44:00Z,42.805,6.029,13.3034,4.60105,2470.833,2023-10-19T09:46:25Z
2023-10-19T07:47:03Z,42.805,6.029,13.3034,4.60104,2470.833,2023-10-19T09:49:28Z
2023-10-19T07:50:06Z,42.805,6.029,13.3034,4.60104,2470.833,2023-10-19T09:52:31Z
2023-10-19T07:53:10Z,42.805,6.029,13.3036,4.60102,2470.88,2023-10-19T09:55:34Z
2023-10-19T07:56:13Z,42.805,6.029,13.3032,4.60104,2470.857,2023-10-19T09:58:37Z
2023-10-19T07:59:16Z,42.805,6.029,13.3034,4.60104,2470.857,2023-10-19T10:01:41Z
2023-10-19T08:02:19Z,42.805,6.029,13.3036,4.60103,2470.857,2023-10-19T10:04:44Z
2023-10-19T08:05:22Z,42.805,6.029,13.3031,4.60104,2470.833,2023-10-19T10:07:47Z
2023-10-19T08:08:25Z,42.805,6.029,13.3031,4.60103,2470.857,2023-10-19T10:10:50Z
2023-10-19T08:11:28Z,42.805,6.029,13.3036,4.60104,2470.857,2023-10-19T10:13:53Z
2023-10-19T08:14:31Z,42.805,6.029,13.3034,4.60105,2470.871,2023-10-19T10:16:56Z
2023-10-19T08:17:34Z,42.805,6.029,13.3035,4.60104,2470.857,2023-10-19T10:19:59Z
2023-10-19T08:20:37Z,42.805,6.029,13.3034,4.60104,2470.857,2023-10-19T10:23:02Z
2023-10-19T08:23:40Z,42.805,6.029,13.3035,4.60104,2470.88,2023-10-19T10:26:05Z
2023-10-19T08:26:43Z,42.805,6.029,13.3034,4.60103,2470.894,2023-10-19T10:29:08Z
2023-10-19T08:29:47Z,42.805,6.029,13.3037,4.60103,2470.857,2023-10-19T10:32:11Z
2023-10-19T08:32:50Z,42.805,6.029,13.3034,4.60104,2470.857,2023-10-19T10:35:15Z
2023-10-19T08:35:53Z,42.805,6.029,13.3038,4.60104,2470.871,2023-10-19T10:38:18Z
2023-10-19T08:38:56Z,42.805,6.029,13.3030,4.60105,2470.857,2023-10-19T10:41:21Z
2023-10-19T08:41:59Z,42.805,6.029,13.3035,4.60103,2470.847,2023-10-19T10:44:24Z
2023-10-19T08:45:02Z,42.805,6.029,13.3032,4.60103,2470.904,2023-10-19T10:47:27Z
2023-10-19T08:48:05Z,42.805,6.029,13.3036,4.60104,2470.88,2023-10-19T10:50:30Z
2023-10-19T08:51:08Z,42.805,6.029,13.3035,4.60103,2470.894,2023-10-19T10:53:33Z
2023-10-19T08:54:11Z,42.805,6.029,13.3032,4.60104,2470.88,2023-10-19T10:56:36Z
2023-10-19T08:57:14Z,42.805,6.029,13.3036,4.60104,2470.857,2023-10-19T10:59:39Z
2023-10-19T09:00:17Z,42.805,6.029,13.3036,4.60103,2470.88,2023-10-19T11:02:42Z
2023-10-19T09:03:20Z,42.805,6.029,13.3036,4.60104,2470.871,2023-10-19T11:05:45Z
2023-10-19T09:06:24Z,42.805,6.029,13.3032,4.60103,2470.894,2023-10-19T11:08:48Z
2023-10-19T09:09:27Z,42.805,6.029,13.3035,4.60104,2470.871,2023-10-19T11:11:52Z
2023-10-19T09:12:30Z,42.805,6.029,13.3035,4.60104,2470.894,2023-10-19T11:14:55Z
2023-10-19T09:15:33Z,42.805,6.029,13.3034,4.60105,2470.904,2023-10-19T11:17:58Z
2023-10-19T09:18:36Z,42.805,6.029,13.3034,4.60105,2470.904,2023-10-19T11:21:01Z
2023-10-19T09:21:39Z,42.805,6.029,13.3034,4.60104,2470.857,2023-10-19T11:24:04Z
2023-10-19T09:24:42Z,42.805,6.029,13.3036,4.60105,2470.894,2023-10-19T11:27:07Z
2023-10-19T09:27:45Z,42.805,6.029,13.3031,4.60104,2470.894,2023-10-19T11:30:10Z
2023-10-19T09:30:48Z,42.805,6.029,13.3034,4.60104,2470.904,2023-10-19T11:33:13Z
2023-10-19T09:33:51Z,42.805,6.029,13.3035,4.60104,2470.904,2023-10-19T11:36:16Z
2023-10-19T09:36:54Z,42.805,6.029,13.3034,4.60103,2470.88,2023-10-19T11:39:19Z
2023-10-19T09:39:58Z,42.805,6.029,13.3035,4.60104,2470.857,2023-10-19T11:42:22Z
2023-10-19T09:43:01Z,42.805,6.029,13.3034,4.60105,2470.88,2023-10-19T11:45:26Z
2023-10-19T09:46:04Z,42.805,6.029,13.3032,4.60104,2470.894,2023-10-19T11:48:29Z
2023-10-19T09:49:07Z,42.805,6.029,13.3034,4.60104,2470.857,2023-10-19T11:51:32Z
2023-10-19T09:52:10Z,42.805,6.029,13.3029,4.60104,2470.89,2023-10-19T11:54:35Z
2023-10-19T09:55:13Z,42.805,6.029,13.3036,4.60105,2470.871,2023-10-19T11:57:38Z
2023-10-19T09:58:16Z,42.805,6.029,13.3031,4.60104,2470.917,2023-10-19T12:00:41Z
2023-10-19T10:01:19Z,42.805,6.029,13.3032,4.60102,2470.894,2023-10-19T12:03:44Z
2023-10-19T10:04:22Z,42.805,6.029,13.3031,4.60102,2470.88,2023-10-19T12:06:47Z
2023-10-19T10:07:25Z,42.805,6.029,13.3031,4.60104,2470.857,2023-10-19T12:09:50Z
2023-10-19T10:10:28Z,42.805,6.029,13.3032,4.60105,2470.88,2023-10-19T12:12:53Z
2023-10-19T10:13:32Z,42.805,6.029,13.3036,4.60102,2470.894,2023-10-19T12:15:56Z
2023-10-19T10:16:35Z,42.805,6.029,13.3037,4.60104,2470.857,2023-10-19T12:18:59Z
2023-10-19T10:19:38Z,42.805,6.029,13.3034,4.60103,2470.857,2023-10-19T12:22:03Z
2023-10-19T10:22:41Z,42.805,6.029,13.3035,4.60103,2470.894,2023-10-19T12:25:06Z
2023-10-19T10:25:44Z,42.805,6.029,13.3034,4.60104,2470.88,2023-10-19T12:28:09Z
2023-10-19T10:28:47Z,42.805,6.029,13.3035,4.60102,2470.866,2023-10-19T12:31:12Z
2023-10-19T10:31:50Z,42.805,6.029,13.3035,4.60103,2470.894,2023-10-19T12:34:15Z
2023-10-19T10:34:53Z,42.805,6.029,13.3033,4.60102,2470.857,2023-10-19T12:37:18Z
2023-10-19T10:37:56Z,42.805,6.029,13.3034,4.60103,2470.88,2023-10-19T12:40:21Z
2023-10-19T10:40:59Z,42.805,6.029,13.3033,4.60104,2470.857,2023-10-19T12:43:24Z
2023-10-19T10:44:02Z,42.805,6.029,13.3035,4.60105,2470.894,2023-10-19T12:46:27Z
2023-10-19T10:47:05Z,42.805,6.029,13.3035,4.60104,2470.871,2023-10-19T12:49:30Z
2023-10-19T10:50:09Z,42.805,6.029,13.3037,4.60102,2470.866,2023-10-19T12:52:33Z
2023-10-19T10:53:12Z,42.805,6.029,13.3035,4.60105,2470.88,2023-10-19T12:55:37Z
2023-10-19T10:56:15Z,42.805,6.029,13.3035,4.60103,2470.833,2023-10-19T12:58:40Z
2023-10-19T10:59:18Z,42.805,6.029,13.3034,4.60104,2470.871,2023-10-19T13:01:43Z
2023-10-19T11:02:21Z,42.805,6.029,13.3035,4.60104,2470.857,2023-10-19T13:04:46Z
2023-10-19T11:05:24Z,42.805,6.029,13.3035,4.60102,2470.82,2023-10-19T13:07:49Z
2023-10-19T11:08:27Z,42.805,6.029,13.3040,4.60103,2470.857,2023-10-19T13:10:52Z
2023-10-19T11:11:30Z,42.805,6.029,13.3034,4.60103,2470.824,2023-10-19T13:13:55Z
2023-10-19T11:14:33Z,42.805,6.029,13.3034,4.60102,2470.833,2023-10-19T13:16:58Z
2023-10-19T11:17:36Z,42.805,6.029,13.3034,4.60102,2470.857,2023-10-19T13:20:01Z
2023-10-19T11:20:39Z,42.805,6.029,13.3034,4.60103,2470.857,2023-10-19T13:23:04Z
2023-10-19T11:23:43Z,42.805,6.029,13.3038,4.60104,2470.857,2023-10-19T13:26:07Z
2023-10-19T11:26:46Z,42.805,6.029,13.3035,4.60104,2470.871,2023-10-19T13:29:11Z
2023-10-19T11:29:49Z,42.805,6.029,13.3036,4.60104,2470.857,2023-10-19T13:32:14Z
2023-10-19T11:32:52Z,42.805,6.029,13.3035,4.60103,2470.833,2023-10-19T13:35:17Z
2023-10-19T11:35:55Z,42.805,6.029,13.3035,4.60102,2470.81,2023-10-19T13:38:20Z
2023-10-19T11:38:58Z,42.805,6.029,13.3036,4.60106,2470.833,2023-10-19T13:41:23Z
2023-10-19T11:42:01Z,42.805,6.029,13.3031,4.60103,2470.833,2023-10-19T13:44:26Z
2023-10-19T11:45:04Z,42.805,6.029,13.3031,4.60103,2470.81,2023-10-19T13:47:29Z
2023-10-19T11:48:07Z,42.805,6.029,13.3034,4.60104,2470.833,2023-10-19T13:50:32Z
2023-10-19T11:51:10Z,42.805,6.029,13.3037,4.60103,2470.833,2023-10-19T13:53:35Z
2023-10-19T11:54:13Z,42.805,6.029,13.3036,4.60103,2470.871,2023-10-19T13:56:38Z
2023-10-19T11:57:17Z,42.805,6.029,13.3031,4.60104,2470.833,2023-10-19T13:59:41Z
2023-10-19T12:00:20Z,42.805,6.029,13.3035,4.60102,2470.8,2023-10-19T14:02:45Z
2023-10-19T12:03:23Z,42.805,6.029,13.3031,4.60103,2470.857,2023-10-19T14:05:48Z
2023-10-19T12:06:26Z,42.805,6.029,13.3035,4.60104,2470.833,2023-10-19T14:08:51Z
2023-10-19T12:09:29Z,42.805,6.029,13.3036,4.60103,2470.81,2023-10-19T14:11:54Z
2023-10-19T12:12:32Z,42.805,6.029,13.3038,4.60102,2470.796,2023-10-19T14:14:57Z
2023-10-19T12:15:35Z,42.805,6.029,13.3034,4.60104,2470.81,2023-10-19T14:18:00Z
2023-10-19T12:18:38Z,42.805,6.029,13.3029,4.60102,2470.824,2023-10-19T14:21:03Z
2023-10-19T12:21:41Z,42.805,6.029,13.3035,4.60102,2470.81,2023-10-19T14:24:06Z
2023-10-19T12:24:44Z,42.805,6.029,13.3032,4.60102,2470.833,2023-10-19T14:27:09Z
2023-10-19T12:27:47Z,42.805,6.029,13.3037,4.60102,2470.824,2023-10-19T14:30:12Z
2023-10-19T12:30:51Z,42.805,6.029,13.3032,4.60102,2470.833,2023-10-19T14:33:16Z
2023-10-19T12:33:54Z,42.805,6.029,13.3031,4.60103,2470.81,2023-10-19T14:36:19Z
2023-10-19T12:36:57Z,42.805,6.029,13.3037,4.60103,2470.763,2023-10-19T14:39:22Z
2023-10-19T12:40:00Z,42.805,6.029,13.3032,4.60104,2470.824,2023-10-19T14:42:25Z
2023-10-19T12:43:03Z,42.805,6.029,13.3031,4.60102,2470.847,2023-10-19T14:45:28Z
2023-10-19T12:46:06Z,42.805,6.029,13.3035,4.60102,2470.833,2023-10-19T14:48:31Z
2023-10-19T12:49:09Z,42.805,6.029,13.3032,4.60102,2470.81,2023-10-19T14:51:34Z
2023-10-19T12:52:13Z,42.805,6.029,13.3035,4.60104,2470.81,2023-10-19T14:54:37Z
2023-10-19T12:55:16Z,42.805,6.029,13.3037,4.60102,2470.81,2023-10-19T14:57:41Z
2023-10-19T12:58:19Z,42.805,6.029,13.3036,4.60102,2470.787,2023-10-19T15:00:44Z
2023-10-19T13:01:22Z,42.805,6.029,13.3033,4.60104,2470.787,2023-10-19T15:03:47Z
2023-10-19T13:04:25Z,42.805,6.029,13.3033,4.60103,2470.796,2023-10-19T15:06:50Z
2023-10-19T13:07:28Z,42.805,6.029,13.3035,4.60102,2470.8,2023-10-19T15:09:53Z
2023-10-19T13:10:31Z,42.805,6.029,13.3034,4.60102,2470.74,2023-10-19T15:12:56Z
2023-10-19T13:13:34Z,42.805,6.029,13.3036,4.60102,2470.787,2023-10-19T15:15:59Z
2023-10-19T13:16:37Z,42.805,6.029,13.3031,4.60103,2470.824,2023-10-19T15:19:02Z
2023-10-19T13:19:40Z,42.805,6.029,13.3036,4.60103,2470.81,2023-10-19T15:22:05Z
2023-10-19T13:22:43Z,42.805,6.029,13.3036,4.60105,2470.787,2023-10-19T15:25:08Z
2023-10-19T13:25:47Z,42.805,6.029,13.3034,4.60102,2470.787,2023-10-19T15:28:11Z
2023-10-19T13:28:50Z,42.805,6.029,13.3034,4.60102,2470.833,2023-10-19T15:31:14Z
2023-10-19T13:31:53Z,42.805,6.029,13.3036,4.60102,2470.8,2023-10-19T15:34:18Z
2023-10-19T13:34:56Z,42.805,6.029,13.3034,4.60102,2470.8,2023-10-19T15:37:21Z
2023-10-19T13:37:59Z,42.805,6.029,13.3035,4.60104,2470.787,2023-10-19T15:40:24Z
2023-10-19T13:41:02Z,42.805,6.029,13.3031,4.60102,2470.787,2023-10-19T15:43:27Z
2023-10-19T13:44:05Z,42.805,6.029,13.3036,4.60102,2470.81,2023-10-19T15:46:30Z
2023-10-19T13:47:08Z,42.805,6.029,13.3034,4.60101,2470.8,2023-10-19T15:49:33Z
2023-10-19T13:50:11Z,42.805,6.029,13.3036,4.60102,2470.777,2023-10-19T15:52:36Z
2023-10-19T13:53:14Z,42.805,6.029,13.3036,4.60101,2470.763,2023-10-19T15:55:39Z
2023-10-19T13:56:17Z,42.805,6.029,13.3031,4.60101,2470.8,2023-10-19T15:58:42Z
2023-10-19T13:59:21Z,42.805,6.029,13.3033,4.60103,2470.8,2023-10-19T16:01:45Z
2023-10-19T14:02:24Z,42.805,6.029,13.3031,4.60101,2470.787,2023-10-19T16:04:49Z
2023-10-19T14:05:27Z,42.805,6.029,13.3030,4.60102,2470.74,2023-10-19T16:07:52Z
2023-10-19T14:08:30Z,42.805,6.029,13.3033,4.60100,2470.74,2023-10-19T16:10:55Z
2023-10-19T14:11:33Z,42.805,6.029,13.3036,4.60101,2470.754,2023-10-19T16:13:58Z
2023-10-19T14:14:36Z,42.805,6.029,13.3033,4.60103,2470.787,2023-10-19T16:17:01Z
2023-10-19T14:17:39Z,42.805,6.029,13.3038,4.60102,2470.74,2023-10-19T16:20:04Z
2023-10-19T14:20:42Z,42.805,6.029,13.3035,4.60102,2470.763,2023-10-19T16:23:07Z
2023-10-19T14:23:45Z,42.805,6.029,13.3034,4.60102,2470.763,2023-10-19T16:26:10Z
2023-10-19T14:26:48Z,42.805,6.029,13.3034,4.60102,2470.74,2023-10-19T16:29:13Z
2023-10-19T14:29:51Z,42.805,6.029,13.3036,4.60102,2470.74,2023-10-19T16:32:16Z
2023-10-19T14:32:55Z,42.805,6.029,13.3034,4.60102,2470.74,2023-10-19T16:35:20Z
2023-10-19T14:35:59Z,42.805,6.029,13.3031,4.60102,2470.754,2023-10-19T16:38:23Z
2023-10-19T14:39:02Z,42.805,6.029,13.3035,4.60102,2470.763,2023-10-19T16:41:27Z
2023-10-19T14:42:05Z,42.805,6.029,13.3035,4.60102,2470.777,2023-10-19T16:44:30Z
2023-10-19T14:45:08Z,42.805,6.029,13.3033,4.60102,2470.693,2023-10-19T16:47:33Z
2023-10-19T14:48:11Z,42.805,6.029,13.3033,4.60102,2470.777,2023-10-19T16:50:36Z
2023-10-19T14:51:14Z,42.805,6.029,13.3034,4.60102,2470.787,2023-10-19T16:53:39Z
2023-10-19T14:54:17Z,42.805,6.029,13.3031,4.60102,2470.763,2023-10-19T16:56:42Z
2023-10-19T14:57:20Z,42.805,6.029,13.3037,4.60102,2470.74,2023-10-19T16:59:45Z
2023-10-19T15:00:23Z,42.805,6.029,13.3033,4.60102,2470.754,2023-10-19T17:02:48Z